Total_Precipitation_Accumulation
0.63 0.75 0.78 0.61 0.55 0.50 0.42 0.41 0.32 0.21 0.19 0.20 0.21 0.19 0.11 0.07 0.08 0.08 0.07 0.08 0.08 0.07 0.08 0.13 0.19 0.27 0.31 0.32 0.38 0.50 0.62 0.75 0.80 0.86 0.86 0.84 0.90 0.90 0.84 0.76 0.79 0.88 0.83 0.73
0.75 0.60 0.40 0.35 0.36 0.45 0.48 0.47 0.35 0.23 0.22 0.26 0.24 0.19 0.11 0.07 0.07 0.08 0.08 0.07 0.07 0.08 0.09 0.14 0.19 0.25 0.29 0.33 0.37 0.48 0.62 0.73 0.77 0.78 0.84 0.82 0.86 0.87 0.89 0.84 0.84 0.90 0.96 0.88
0.62 0.38 0.28 0.39 0.43 0.53 0.53 0.44 0.32 0.27 0.27 0.31 0.34 0.28 0.14 0.08 0.08 0.10 0.11 0.11 0.10 0.10 0.11 0.15 0.19 0.22 0.25 0.30 0.34 0.40 0.56 0.74 0.80 0.78 0.88 0.95 1.02 1.07 1.05 0.98 0.91 0.91 0.94 0.92
0.50 0.29 0.31 0.45 0.47 0.49 0.50 0.29 0.26 0.30 0.40 0.43 0.38 0.44 0.21 0.12 0.10 0.11 0.13 0.14 0.14 0.12 0.13 0.18 0.21 0.25 0.27 0.32 0.36 0.38 0.47 0.64 0.84 0.86 0.88 0.94 0.99 1.01 1.06 0.99 0.92 0.90 0.94 0.97
0.54 0.30 0.32 0.45 0.38 0.35 0.37 0.27 0.29 0.36 0.46 0.49 0.38 0.47 0.28 0.16 0.14 0.11 0.10 0.11 0.12 0.12 0.15 0.20 0.24 0.29 0.32 0.39 0.46 0.45 0.50 0.58 0.78 0.83 0.83 0.88 0.92 0.94 1.02 1.05 0.98 0.95 0.98 1.02
0.43 0.31 0.32 0.31 0.27 0.28 0.34 0.40 0.46 0.52 0.70 0.74 0.30 0.34 0.33 0.26 0.23 0.16 0.13 0.14 0.13 0.14 0.17 0.21 0.27 0.34 0.39 0.44 0.55 0.55 0.58 0.58 0.69 0.86 0.84 0.81 0.85 0.88 0.94 0.99 1.05 1.05 1.03 1.04
0.55 0.41 0.36 0.31 0.38 0.45 0.56 0.81 1.14 1.13 1.06 0.60 0.14 0.20 0.30 0.25 0.23 0.18 0.15 0.18 0.17 0.17 0.19 0.23 0.30 0.39 0.40 0.43 0.57 0.59 0.60 0.62 0.63 0.78 0.85 0.79 0.79 0.81 0.82 0.90 0.94 1.00 1.06 1.05
0.64 0.52 0.39 0.35 0.44 0.55 0.55 0.70 0.91 0.81 0.49 0.19 0.10 0.17 0.22 0.20 0.16 0.14 0.14 0.16 0.18 0.17 0.18 0.23 0.27 0.34 0.39 0.39 0.50 0.60 0.63 0.65 0.64 0.72 0.85 0.87 0.85 0.86 0.81 0.86 0.92 0.92 0.94 0.96
0.65 0.40 0.25 0.26 0.25 0.32 0.44 0.49 0.44 0.58 0.38 0.21 0.15 0.12 0.15 0.14 0.11 0.13 0.14 0.14 0.18 0.20 0.21 0.23 0.26 0.29 0.32 0.38 0.45 0.52 0.64 0.70 0.70 0.70 0.83 0.99 1.04 0.96 0.86 0.83 0.87 0.89 0.87 0.89
0.75 0.52 0.23 0.27 0.38 0.38 0.40 0.46 0.59 0.81 0.62 0.31 0.16 0.17 0.27 0.22 0.18 0.16 0.14 0.14 0.14 0.19 0.25 0.28 0.28 0.31 0.32 0.34 0.41 0.46 0.58 0.69 0.74 0.71 0.78 0.93 1.15 1.17 1.02 0.96 0.86 0.84 0.83 0.84
0.67 0.71 0.41 0.37 0.53 0.52 0.45 0.57 0.74 0.78 0.54 0.39 0.24 0.23 0.28 0.26 0.21 0.16 0.12 0.11 0.12 0.16 0.20 0.24 0.27 0.34 0.37 0.36 0.40 0.45 0.51 0.61 0.69 0.67 0.72 0.82 0.99 1.21 1.23 1.13 1.00 0.86 0.82 0.79
0.67 0.82 0.61 0.36 0.33 0.36 0.42 0.49 0.61 0.77 0.55 0.31 0.27 0.21 0.15 0.15 0.15 0.13 0.11 0.09 0.11 0.15 0.17 0.20 0.24 0.32 0.37 0.38 0.40 0.43 0.48 0.56 0.63 0.64 0.68 0.77 0.85 1.02 1.24 1.19 1.05 0.93 0.86 0.83
1.04 1.24 0.98 0.69 0.58 0.51 0.58 0.52 0.50 0.55 0.53 0.35 0.29 0.18 0.09 0.08 0.11 0.09 0.09 0.10 0.11 0.14 0.17 0.19 0.25 0.30 0.34 0.40 0.43 0.42 0.45 0.52 0.57 0.64 0.68 0.70 0.78 0.87 0.98 1.13 1.08 0.99 0.92 0.88
1.21 1.31 0.94 0.76 0.62 0.58 0.55 0.40 0.39 0.58 0.67 0.36 0.17 0.12 0.08 0.10 0.14 0.13 0.12 0.12 0.12 0.13 0.17 0.22 0.25 0.27 0.32 0.39 0.46 0.45 0.48 0.51 0.50 0.57 0.65 0.64 0.65 0.73 0.78 0.90 1.08 1.09 1.00 0.92
1.05 1.06 0.53 0.31 0.23 0.26 0.28 0.24 0.24 0.38 0.39 0.30 0.15 0.13 0.14 0.13 0.15 0.17 0.18 0.18 0.16 0.14 0.17 0.23 0.27 0.27 0.33 0.41 0.50 0.53 0.49 0.45 0.42 0.47 0.55 0.61 0.65 0.72 0.75 0.76 0.87 1.05 1.02 0.89
0.99 0.92 0.46 0.25 0.18 0.20 0.21 0.18 0.19 0.21 0.20 0.18 0.13 0.14 0.15 0.14 0.12 0.14 0.17 0.19 0.20 0.20 0.20 0.23 0.28 0.28 0.34 0.41 0.51 0.60 0.53 0.47 0.40 0.43 0.50 0.56 0.65 0.78 0.80 0.75 0.79 0.89 0.97 0.94
0.94 0.92 0.74 0.39 0.18 0.34 0.37 0.24 0.22 0.21 0.18 0.21 0.23 0.19 0.14 0.15 0.15 0.17 0.20 0.21 0.23 0.23 0.25 0.26 0.30 0.33 0.38 0.41 0.49 0.57 0.55 0.51 0.44 0.44 0.49 0.54 0.58 0.72 0.79 0.79 0.83 0.85 0.89 0.97
0.69 0.85 1.04 0.65 0.47 0.71 0.33 0.16 0.17 0.19 0.21 0.22 0.20 0.16 0.14 0.15 0.15 0.16 0.21 0.24 0.26 0.26 0.26 0.27 0.32 0.38 0.38 0.40 0.42 0.48 0.51 0.49 0.47 0.47 0.53 0.57 0.55 0.60 0.73 0.83 0.84 0.83 0.84 0.87
0.38 0.76 1.21 1.03 0.74 0.42 0.18 0.16 0.20 0.25 0.26 0.20 0.15 0.13 0.11 0.11 0.11 0.12 0.13 0.18 0.25 0.26 0.26 0.28 0.32 0.37 0.37 0.37 0.36 0.43 0.48 0.47 0.48 0.54 0.57 0.58 0.53 0.54 0.64 0.73 0.80 0.82 0.82 0.78
0.38 0.72 1.32 1.18 0.88 0.41 0.25 0.17 0.14 0.19 0.35 0.19 0.15 0.16 0.13 0.14 0.20 0.16 0.12 0.17 0.24 0.22 0.23 0.26 0.30 0.31 0.34 0.37 0.36 0.41 0.45 0.41 0.46 0.49 0.56 0.53 0.47 0.44 0.45 0.55 0.71 0.78 0.79 0.75
0.70 1.09 1.32 1.01 0.79 0.34 0.23 0.18 0.17 0.33 0.41 0.20 0.16 0.17 0.15 0.18 0.24 0.19 0.16 0.20 0.23 0.18 0.19 0.22 0.26 0.28 0.35 0.38 0.34 0.38 0.43 0.42 0.44 0.48 0.53 0.48 0.44 0.45 0.44 0.50 0.63 0.72 0.80 0.82
0.61 0.83 0.82 0.74 0.82 0.44 0.23 0.25 0.36 0.42 0.24 0.16 0.14 0.14 0.13 0.12 0.11 0.12 0.14 0.19 0.21 0.17 0.16 0.16 0.20 0.24 0.30 0.33 0.32 0.38 0.44 0.44 0.46 0.48 0.44 0.44 0.46 0.47 0.48 0.51 0.59 0.70 0.79 0.85
0.48 0.60 0.58 0.53 0.46 0.31 0.25 0.32 0.33 0.26 0.18 0.13 0.13 0.12 0.11 0.11 0.10 0.12 0.16 0.18 0.20 0.18 0.18 0.17 0.19 0.21 0.27 0.30 0.32 0.39 0.44 0.42 0.44 0.44 0.42 0.40 0.44 0.46 0.48 0.54 0.61 0.70 0.77 0.81
0.32 0.34 0.42 0.38 0.25 0.20 0.21 0.23 0.23 0.18 0.15 0.13 0.13 0.12 0.12 0.11 0.12 0.14 0.16 0.17 0.18 0.19 0.18 0.18 0.20 0.22 0.28 0.31 0.31 0.37 0.42 0.38 0.36 0.37 0.40 0.39 0.43 0.49 0.52 0.57 0.61 0.66 0.76 0.83
0.27 0.30 0.37 0.35 0.21 0.17 0.17 0.18 0.18 0.16 0.14 0.13 0.14 0.13 0.12 0.12 0.13 0.15 0.17 0.18 0.19 0.22 0.21 0.20 0.22 0.23 0.29 0.32 0.35 0.38 0.37 0.35 0.34 0.34 0.40 0.45 0.48 0.52 0.57 0.60 0.62 0.65 0.68 0.82
0.19 0.24 0.32 0.31 0.22 0.22 0.21 0.18 0.17 0.16 0.16 0.16 0.16 0.15 0.13 0.14 0.18 0.16 0.17 0.19 0.21 0.24 0.25 0.23 0.23 0.25 0.30 0.34 0.40 0.40 0.35 0.32 0.34 0.38 0.41 0.48 0.52 0.54 0.55 0.55 0.58 0.66 0.68 0.73